sat.trackr.live / text

‹ back to catalog

STARLINK-35925

NORAD 66887 · 2025-283K

PAYLOAD ACTIVE UNKNOWN

§ Identity

Operator
Country
US
Launch date
2025-12-04
Launch site
AFWTR
Launch vehicle
Mass (kg)
RCS (m²)

Purposes: comms

External: N2YO · Heavens-Above · Gunter

§ Orbital elements

Epoch: 2026-09-20T12:35:54.401280Z

Period
93.85 min
Inclination
53.1577°
Eccentricity
0.0001342
Mean motion
15.34380374 rev/d
Perigee alt
461.8 km
Apogee alt
463.7 km
Semi-major
6,840.9 km
B*
2.7078e-4
RAAN
195.6808°
Arg perigee
89.6119°
Mean anomaly
270.5038°
Rev number
4,572

§ Raw data

STARLINK-359251 66887U 25283K   26263.52493520  .00008778  00000+0  27078-3 0  99902 66887  53.1577 195.6808 0001342  89.6119 270.5038 15.34380374 45727

JSON: /api/v1/satellites/66887 · /tle

For live sub-satellite position, see the globe view (requires WebGL).

§ Visibility from observer

Set your observer location to see the next 7 days of passes ≥ 10°. The values pass through the URL so the page stays shareable.

No JS? Fill the form by hand. The geolocation button needs JavaScript.